"Timestamp","TZ","WindDir_Mean (deg)","WindSpd_Mean (km/h)","WindSpd_Min (km/h)","WindSpd_Max (km/h)","Temp_Mean (deg)","RH_Mean (%)","MSLP_Mean (hPa)","Rain_Acc (mm)","Rain_Intensity (mm/h)","Hail_Acc (hits/cm2)","Hail_Intensity (hits/cm2hr)","Solar_Mean (W/m2)"
2020/11/05 00:00:00.001,n,18,3.96,3.96,4.32,20.4,64.699996,1014.52,0,0,0,0,0.025215
2020/11/05 00:01:00.000,n,341,4.68,3.96,5.4,20.4,64.800004,1014.52,0,0,0,0,0.025215
2020/11/05 00:02:00.000,n,10,5.76,5.04,6.12,20.4,64.800004,1014.42,0,0,0,0,0.026131
2020/11/05 00:03:00.000,n,10,5.04,3.96,5.76,20.4,65,1014.42,0,0,0,0,0.028725
2020/11/05 00:04:00.006,n,20,6.12,5.76,6.48,20.4,64.800004,1014.42,0,0,0,0,0.026131
2020/11/05 00:05:00.004,n,4,6.12,5.4,6.48,20.4,64.800004,1014.42,0,0,0,0,0.02697
2020/11/05 00:06:00.001,n,25,2.16,1.44,3.6,20.4,64.9,1014.42,0,0,0,0,0.028725
2020/11/05 00:07:00.000,n,14,3.24,2.16,4.68,20.4,64.9,1014.32,0,0,0,0,0.026131
2020/11/05 00:08:00.012,n,3,4.32,3.96,5.04,20.4,65,1014.32,0,0,0,0,0.02697
2020/11/05 00:09:00.009,n,0,5.04,4.32,5.76,20.4,65,1014.22,0,0,0,0,0.027847
2020/11/05 00:10:00.000,n,25,9.72,2.52,11.52,20.4,65.1,1014.22,0,0,0,0,0.025215
2020/11/05 00:11:00.002,n,9,4.68,3.96,6.12,20.4,65.1,1014.22,0,0,0,0,0.02697
2020/11/05 00:12:00.000,n,341,4.32,3.24,5.4,20.4,65.1,1014.22,0,0,0,0,0.027847
2020/11/05 00:13:00.000,n,10,4.68,4.32,5.04,20.4,65.1,1014.12,0,0,0,0,0.02697
2020/11/05 00:14:00.000,n,346,5.4,5.04,6.12,20.4,65.4,1014.12,0,0,0,0,0.022621
2020/11/05 00:15:00.007,n,28,4.32,3.96,4.68,20.4,65.199996,1014.12,0,0,0,0,0.027847
2020/11/05 00:16:00.005,n,336,8.64,7.56,10.08,20.4,65.6,1014.12,0,0,0,0,0.024376
2020/11/05 00:17:00.002,n,344,7.56,5.76,8.64,20.4,65.6,1014.12,0,0,0,0,0.025215
2020/11/05 00:18:00.015,n,358,8.28,7.92,9.72,20.4,65.199996,1014.12,0,0,0,0,0.022621
2020/11/05 00:19:00.000,n,12,6.12,5.76,6.84,20.4,65.199996,1014.12,0,0,0,0,0.026131
2020/11/05 00:20:00.000,n,30,6.84,5.04,7.92,20.4,65.199996,1014.12,0,0,0,0,0.025215
2020/11/05 00:21:00.000,n,17,5.76,5.4,6.84,20.4,65.199996,1014.12,0,0,0,0,0.021782
2020/11/05 00:22:00.005,n,32,4.32,2.88,5.76,20.4,65.199996,1014.02,0,0,0,0,0.032196
2020/11/05 00:23:00.000,n,344,3.6,1.44,5.4,20.4,65.4,1014.02,0,0,0,0,0.032196
2020/11/05 00:24:00.000,n,358,6.12,5.4,6.48,20.4,65.300004,1014.02,0,0,0,0,0.037422
2020/11/05 00:25:00.010,n,5,3.96,3.96,5.04,20.4,65.300004,1014.02,0,0,0,0,0.033073
2020/11/05 00:26:00.007,n,352,6.12,5.76,6.48,20.4,65.300004,1014.02,0,0,0,0,0.035667
2020/11/05 00:27:00.005,n,353,5.76,5.4,6.12,20.3,66,1014.02,0,0,0,0,0.036545
2020/11/05 00:28:00.002,n,1,4.68,3.6,5.4,20.4,65.4,1014.02,0,0,0,0,0.036545
2020/11/05 00:29:00.000,n,0,3.96,3.6,4.68,20.4,65.5,1014.02,0,0,0,0,0.036545
2020/11/05 00:30:00.000,n,351,4.68,4.32,5.04,20.3,65.5,1013.92,0,0,0,0,0.037422
2020/11/05 00:31:00.000,n,356,3.24,2.52,3.96,20.3,65.6,1013.92,0,0,0,0,0.039177
2020/11/05 00:32:00.006,n,356,4.32,3.96,5.04,20.3,65.699996,1013.92,0,0,0,0,0.037422
2020/11/05 00:33:00.005,n,0,5.4,4.68,5.76,20.3,65.800004,1013.92,0,0,0,0,0.0383
2020/11/05 00:34:00.001,n,355,3.96,3.6,4.32,20.3,66.1,1013.82,0,0,0,0,0.037422
2020/11/05 00:35:00.014,n,351,5.76,5.4,6.12,20.3,66.1,1013.82,0,0,0,0,0.039177
2020/11/05 00:36:00.011,n,4,5.76,5.4,6.12,20.3,65.699996,1013.82,0,0,0,0,0.034828
2020/11/05 00:37:00.000,n,5,5.76,4.32,6.48,20.3,65.800004,1013.82,0,0,0,0,0.0383
2020/11/05 00:38:00.000,n,358,5.76,4.68,6.48,20.3,65.9,1013.72,0,0,0,0,0.034828
2020/11/05 00:39:00.001,n,9,6.48,5.4,6.84,20.3,65.9,1013.72,0,0,0,0,0.037422
2020/11/05 00:40:00.000,n,3,6.48,5.4,7.2,20.3,65.9,1013.72,0,0,0,0,0.037422
2020/11/05 00:41:00.000,n,353,6.48,6.12,7.2,20.3,66,1013.72,0,0,0,0,0.034828
2020/11/05 00:42:00.008,n,12,6.12,3.96,7.2,20.3,66.1,1013.72,0,0,0,0,0.035667
2020/11/05 00:43:00.005,n,68,2.52,2.16,3.6,20.3,66.1,1013.62,0,0,0,0,0.039177
2020/11/05 00:44:00.003,n,32,4.32,3.6,4.68,20.3,66,1013.62,0,0,0,0,0.034828
2020/11/05 00:45:00.001,n,14,5.04,4.68,5.4,20.3,66.1,1013.62,0,0,0,0,0.035667
2020/11/05 00:46:00.000,n,34,5.76,3.96,6.48,20.3,66,1013.62,0,0,0,0,0.034828
2020/11/05 00:47:00.000,n,31,3.24,2.52,3.96,20.3,66.1,1013.62,0,0,0,0,0.035667
2020/11/05 00:48:00.000,n,354,3.24,2.88,3.6,20.3,66.5,1013.62,0,0,0,0,0.035667
2020/11/05 00:49:00.005,n,23,3.96,3.96,4.32,20.3,66.4,1013.52,0,0,0,0,0.032196
2020/11/05 00:50:00.002,n,78,0.72,0.36,1.08,20.3,66.199996,1013.52,0,0,0,0,0.036545
2020/11/05 00:51:00.000,n,7,0.72,0.36,1.08,20.3,66.300004,1013.52,0,0,0,0,0.032196
2020/11/05 00:52:00.012,n,8,2.52,2.16,2.52,20.3,66.300004,1013.52,0,0,0,0,0.037422
2020/11/05 00:53:00.011,n,7,2.52,1.44,2.88,20.3,66.300004,1013.52,0,0,0,0,0.033073
2020/11/05 00:54:00.008,n,347,4.32,3.6,5.4,20.3,66.699996,1013.52,0,0,0,0,0.029602
2020/11/05 00:55:00.000,n,358,5.4,5.04,5.4,20.3,66.9,1013.52,0,0,0,0,0.036545
2020/11/05 00:56:00.001,n,356,4.68,4.32,4.68,20.3,66.699996,1013.52,0,0,0,0,0.032196
2020/11/05 00:57:00.000,n,24,3.96,3.6,4.32,20.3,66.800004,1013.42,0,0,0,0,0.037422
2020/11/05 00:58:00.000,n,266,1.08,1.08,1.8,20.3,66.800004,1013.42,0,0,0,0,0.034828
2020/11/05 00:59:00.000,n,284,0.72,0.36,1.44,20.3,66.9,1013.42,0,0,0,0,0.033951
2020/11/05 01:00:00.006,n,270,2.52,1.08,4.32,20.3,66.800004,1013.32,0,0,0,0,0.029602
2020/11/05 01:01:00.003,n,18,5.04,3.6,6.12,20.3,67.2,1013.32,0,0,0,0,0.034828
2020/11/05 01:02:00.000,n,358,5.4,5.04,6.48,20.3,67.3,1013.32,0,0,0,0,0.035667
2020/11/05 01:03:00.014,n,37,4.68,4.68,5.04,20.2,66.5,1013.32,0,0,0,0,0.033951
2020/11/05 01:04:00.000,n,2,4.68,4.32,5.4,20.2,66.699996,1013.32,0,0,0,0,0.036545
2020/11/05 01:05:00.000,n,13,3.24,2.88,3.6,20.2,67,1013.32,0,0,0,0,0.033951
2020/11/05 01:06:00.000,n,342,2.16,1.8,2.88,20.3,67.6,1013.32,0,0,0,0,0.033073
2020/11/05 01:07:00.002,n,337,3.96,3.24,4.68,20.2,67,1013.32,0,0,0,0,0.035667
2020/11/05 01:08:00.000,n,56,1.44,1.08,1.44,20.2,66.800004,1013.32,0,0,0,0,0.034828
2020/11/05 01:09:00.000,n,264,1.44,0.36,2.52,20.2,67.1,1013.32,0,0,0,0,0.033073
2020/11/05 01:10:00.010,n,131,0.36,0,0.72,20.2,67,1013.22,0,0,0,0,0.033073
2020/11/05 01:11:00.007,n,18,0.72,0.36,1.44,20.2,66.9,1013.22,0,0,0,0,0.031319
2020/11/05 01:12:00.004,n,280,1.08,0.36,1.8,20.2,66.800004,1013.22,0,0,0,0,0.035667
2020/11/05 01:13:00.002,n,343,6.12,5.4,6.48,20.2,67.1,1013.22,0,0,0,0,0.030479
2020/11/05 01:14:00.000,n,12,3.24,2.88,3.6,20.2,67,1013.22,0,0,0,0,0.037422
2020/11/05 01:15:00.000,n,0,2.52,2.52,2.88,20.2,66.9,1013.22,0,0,0,0,0.030479
2020/11/05 01:16:00.000,n,13,1.08,0.36,2.16,20.2,67,1013.22,0,0,0,0,0.033073
2020/11/05 01:17:00.005,n,20,1.8,1.44,2.88,20.2,67.2,1013.22,0,0,0,0,0.034828
2020/11/05 01:18:00.003,n,5,3.96,3.6,4.32,20.2,67.3,1013.22,0,0,0,0,0.033951
2020/11/05 01:19:00.000,n,27,3.6,3.6,3.96,20.2,67,1013.22,0,0,0,0,0.037422
2020/11/05 01:20:00.012,n,28,3.96,3.6,4.68,20.2,67.5,1013.12,0,0,0,0,0.033073
2020/11/05 01:21:00.009,n,8,4.32,3.6,4.68,20.1,67.3,1013.12,0,0,0,0,0.035667
2020/11/05 01:22:00.000,n,358,4.68,3.96,5.04,20.1,67.2,1013.12,0,0,0,0,0.030479
2020/11/05 01:23:00.003,n,8,3.6,2.52,3.6,20.1,67.3,1013.12,0,0,0,0,0.034828
2020/11/05 01:24:00.000,n,0,5.04,5.04,5.4,20.1,68,1013.12,0,0,0,0,0.034828
2020/11/05 01:25:00.000,n,7,2.88,2.88,3.24,20.1,67.6,1013.12,0,0,0,0,0.0383
2020/11/05 01:26:00.000,n,33,2.16,1.44,2.52,20.1,67.4,1013.02,0,0,0,0,0.032196
2020/11/05 01:27:00.007,n,26,2.16,1.8,2.16,20.1,67.4,1013.02,0,0,0,0,0.033951
2020/11/05 01:28:00.005,n,60,2.52,0.72,3.6,20.1,67.3,1013.02,0,0,0,0,0.034828
2020/11/05 01:29:00.001,n,13,3.6,3.24,3.96,20.1,67.2,1013.02,0,0,0,0,0.033073
2020/11/05 01:30:00.015,n,19,4.68,4.32,5.04,20.1,67.3,1013.02,0,0,0,0,0.029602
2020/11/05 01:31:00.000,n,351,3.96,3.24,3.96,20.1,67.6,1012.92,0,0,0,0,0.033951
2020/11/05 01:32:00.000,n,6,5.76,3.96,6.48,20.1,67.6,1012.92,0,0,0,0,0.033073
2020/11/05 01:33:00.000,n,352,4.32,3.6,4.68,20.1,67.6,1012.92,0,0,0,0,0.031319
2020/11/05 01:34:00.003,n,3,2.88,2.16,3.24,20.1,67.8,1012.92,0,0,0,0,0.029602
2020/11/05 01:35:00.001,n,348,6.12,5.4,6.84,20.1,68.4,1012.92,0,0,0,0,0.031319
2020/11/05 01:36:00.000,n,64,2.16,0.72,3.96,20.1,68,1012.92,0,0,0,0,0.031319
2020/11/05 01:37:00.011,n,0,4.68,4.32,5.4,20.1,68.5,1012.92,0,0,0,0,0.035667
2020/11/05 01:38:00.008,n,15,3.96,3.6,3.96,20.1,67.9,1012.92,0,0,0,0,0.030479
2020/11/05 01:39:00.005,n,355,4.68,4.32,5.4,20.1,67.9,1012.92,0,0,0,0,0.031319
2020/11/05 01:40:00.002,n,347,6.48,6.12,7.2,20.1,68.3,1012.92,0,0,0,0,0.032196
2020/11/05 01:41:00.000,n,347,4.32,3.24,4.68,20.1,68.8,1012.92,0,0,0,0,0.033951
2020/11/05 01:42:00.000,n,4,4.32,3.6,4.68,20.1,68.5,1012.92,0,0,0,0,0.032196
2020/11/05 01:43:00.000,n,3,2.88,2.52,3.24,20.1,68,1012.92,0,0,0,0,0.033951
2020/11/05 01:44:00.006,n,7,6.48,6.12,7.2,20.1,69.2,1012.92,0,0,0,0,0.032196
2020/11/05 01:45:00.004,n,347,5.76,5.04,6.12,20.1,68.6,1012.92,0,0,0,0,0.032196
2020/11/05 01:46:00.001,n,35,5.04,3.6,5.76,20.1,68,1012.92,0,0,0,0,0.034828
2020/11/05 01:47:00.014,n,1,1.44,1.08,2.88,20.1,68,1012.92,0,0,0,0,0.027847
2020/11/05 01:48:00.012,n,8,2.88,2.52,3.24,20.1,67.9,1012.92,0,0,0,0,0.034828
2020/11/05 01:49:00.000,n,25,2.52,2.16,2.88,20.1,67.9,1012.92,0,0,0,0,0.028725
2020/11/05 01:50:00.000,n,8,2.88,2.16,3.6,20,68,1012.92,0,0,0,0,0.030479
2020/11/05 01:51:00.002,n,10,3.96,2.88,4.68,20.1,68.2,1012.92,0,0,0,0,0.033073
2020/11/05 01:52:00.000,n,25,3.24,2.52,3.96,20,68,1012.92,0,0,0,0,0.031319
2020/11/05 01:53:00.000,n,28,3.6,3.24,3.96,20,68,1012.92,0,0,0,0,0.030479
2020/11/05 01:54:00.000,n,139,0.72,0,1.44,20,68.1,1012.92,0,0,0,0,0.031319
2020/11/05 01:55:00.007,n,350,2.88,1.8,3.6,20,68.1,1012.82,0,0,0,0,0.032196
2020/11/05 01:56:00.004,n,8,3.24,2.88,3.6,20,68.4,1012.82,0,0,0,0,0.032196
2020/11/05 01:57:00.001,n,20,3.6,3.6,3.96,20,68.2,1012.82,0,0,0,0,0.031319
2020/11/05 01:58:00.000,n,357,5.76,5.76,6.12,20,69.2,1012.82,0,0,0,0,0.030479
2020/11/05 01:59:00.000,n,354,5.04,4.32,5.76,20,69.6,1012.82,0,0,0,0,0.030479
2020/11/05 02:00:00.000,n,6,4.32,3.96,5.04,20,68.4,1012.82,0,0,0,0,0.032196
2020/11/05 02:01:00.004,n,6,4.32,3.96,4.68,20,68.3,1012.82,0,0,0,0,0.027847
2020/11/05 02:02:00.002,n,11,3.96,3.6,3.96,20,68.3,1012.82,0,0,0,0,0.031319
2020/11/05 02:03:00.000,n,12,3.96,3.6,4.32,20,68.2,1012.82,0,0,0,0,0.026093
2020/11/05 02:04:00.012,n,16,3.96,3.96,4.32,20,68.2,1012.82,0,0,0,0,0.026093
2020/11/05 02:05:00.009,n,18,2.88,1.08,3.96,20,68.3,1012.82,0,0,0,0,0.031319
2020/11/05 02:06:00.005,n,289,1.8,1.08,2.52,20,68.5,1012.82,0,0,0,0,0.029602
2020/11/05 02:07:00.000,n,315,2.16,1.08,2.88,20,68.9,1012.82,0,0,0,0,0.030479
2020/11/05 02:08:00.000,n,23,1.08,0.72,2.16,20,68.6,1012.82,0,0,0,0,0.02697
2020/11/05 02:09:00.000,n,319,2.52,1.8,3.6,20,68.7,1012.82,0,0,0,0,0.032196
2020/11/05 02:10:00.000,n,247,2.52,2.16,2.88,20,68.5,1012.82,0,0,0,0,0.028725
2020/11/05 02:11:00.000,n,352,3.24,1.8,4.32,20,68.7,1012.82,0,0,0,0,0.026093
2020/11/05 02:12:00.006,n,224,2.16,0.72,5.04,20,68.7,1012.82,0,0,0,0,0.027847
2020/11/05 02:13:00.003,n,209,1.44,1.08,2.52,20,68.6,1012.82,0,0,0,0,0.029602
2020/11/05 02:14:00.000,n,311,1.44,0.36,2.52,20,68.8,1012.82,0,0,0,0,0.029602
2020/11/05 02:15:00.013,n,16,3.6,2.52,5.4,20,68.5,1012.82,0,0,0,0,0.030479
2020/11/05 02:16:00.000,n,353,5.04,4.32,5.4,19.9,68.5,1012.82,0,0,0,0,0.028725
2020/11/05 02:17:00.000,n,3,4.68,0.36,8.28,20,69.5,1012.82,0,0,0,0,0.031319
2020/11/05 02:18:00.004,n,354,6.12,5.4,6.48,19.9,68.7,1012.72,0,0,0,0,0.029602
2020/11/05 02:19:00.001,n,13,4.68,4.32,4.68,19.9,69,1012.72,0,0,0,0,0.030479
2020/11/05 02:20:00.000,n,0,5.04,4.68,5.04,19.9,68.7,1012.72,0,0,0,0,0.030479
2020/11/05 02:21:00.000,n,36,2.52,1.44,3.24,19.9,68.7,1012.72,0,0,0,0,0.027847
2020/11/05 02:22:00.009,n,18,3.6,2.88,4.32,19.9,68.7,1012.72,0,0,0,0,0.030479
2020/11/05 02:23:00.007,n,340,7.2,6.48,7.56,19.9,68.8,1012.72,0,0,0,0,0.02697
2020/11/05 02:24:00.004,n,5,3.96,2.88,5.04,19.9,69,1012.72,0,0,0,0,0.030479
2020/11/05 02:25:00.001,n,354,5.76,5.04,7.56,19.9,69.1,1012.72,0,0,0,0,0.028725
2020/11/05 02:26:00.000,n,16,5.4,3.96,6.48,19.9,69,1012.62,0,0,0,0,0.033951
2020/11/05 02:27:00.000,n,349,7.2,6.84,7.56,19.9,69,1012.62,0,0,0,0,0.030479
2020/11/05 02:28:00.000,n,2,5.4,5.04,5.76,19.9,68.9,1012.62,0,0,0,0,0.031319
2020/11/05 02:29:00.006,n,39,3.96,3.6,4.68,19.9,69,1012.62,0,0,0,0,0.031319
2020/11/05 02:30:00.002,n,355,5.04,4.32,5.4,19.8,69.2,1012.62,0,0,0,0,0.028725
2020/11/05 02:31:00.000,n,40,4.32,3.6,4.68,19.8,69.2,1012.52,0,0,0,0,0.023499
2020/11/05 02:32:00.012,n,12,6.48,5.76,7.2,19.8,69.2,1012.52,0,0,0,0,0.029602
2020/11/05 02:33:00.010,n,6,3.6,3.24,3.96,19.8,69.2,1012.52,0,0,0,0,0.032196
2020/11/05 02:34:00.000,n,30,2.88,2.88,3.6,19.8,69.2,1012.52,0,0,0,0,0.026093
2020/11/05 02:35:00.003,n,16,5.76,5.04,6.48,19.8,69.1,1012.52,0,0,0,0,0.02697
2020/11/05 02:36:00.001,n,22,3.96,2.52,4.68,19.8,69.2,1012.52,0,0,0,0,0.028725
2020/11/05 02:37:00.000,n,5,3.6,3.6,3.96,19.8,69.8,1012.52,0,0,0,0,0.028725
2020/11/05 02:38:00.000,n,349,6.48,5.4,6.84,19.8,69.5,1012.52,0,0,0,0,0.029602
2020/11/05 02:39:00.008,n,13,5.4,5.04,5.76,19.8,69.3,1012.52,0,0,0,0,0.029602
2020/11/05 02:40:00.005,n,346,2.16,2.16,2.52,19.8,69.7,1012.52,0,0,0,0,0.027847
2020/11/05 02:41:00.003,n,354,2.88,2.16,3.24,19.8,69.5,1012.52,0,0,0,0,0.027847
2020/11/05 02:42:00.001,n,22,3.24,1.8,3.96,19.8,69.7,1012.52,0,0,0,0,0.029602
2020/11/05 02:43:00.000,n,349,3.96,3.24,5.04,19.8,69.9,1012.52,0,0,0,0,0.025253
2020/11/05 02:44:00.000,n,7,5.04,4.68,5.04,19.8,69.2,1012.62,0,0,0,0,0.029602
2020/11/05 02:45:00.000,n,4,3.6,3.24,3.96,19.8,69.3,1012.62,0,0,0,0,0.026093
2020/11/05 02:46:00.006,n,281,1.44,0.72,2.16,19.8,69.4,1012.62,0,0,0,0,0.023499
2020/11/05 02:47:00.003,n,270,2.16,2.16,2.88,19.8,69.4,1012.62,0,0,0,0,0.02697
2020/11/05 02:48:00.000,n,257,3.24,3.24,3.6,19.8,69.4,1012.62,0,0,0,0,0.026093
2020/11/05 02:49:00.000,n,352,5.04,4.32,6.12,19.8,69.5,1012.62,0,0,0,0,0.02697
2020/11/05 02:50:00.011,n,281,2.16,1.08,2.52,19.8,69.3,1012.62,0,0,0,0,0.024376
2020/11/05 02:51:00.008,n,258,4.32,3.96,4.68,19.8,69.4,1012.62,0,0,0,0,0.023499
2020/11/05 02:52:00.000,n,276,2.16,1.08,4.32,19.8,71.4,1012.62,0,0,0,0,0.022621
2020/11/05 02:53:00.002,n,48,1.8,1.44,2.16,19.9,70.3,1012.62,0,0,0,0,0.022621
2020/11/05 02:54:00.000,n,300,1.8,1.08,1.8,19.8,69.8,1012.62,0,0,0,0,0.024376
2020/11/05 02:55:00.000,n,21,1.44,1.08,1.44,19.8,69.6,1012.52,0,0,0,0,0.024376
2020/11/05 02:56:00.000,n,275,2.52,2.16,2.52,19.8,69.6,1012.52,0,0,0,0,0.024376
2020/11/05 02:57:00.008,n,236,2.88,2.16,3.24,19.8,69.5,1012.52,0,0,0,0,0.022621
2020/11/05 02:58:00.005,n,263,2.88,2.52,3.24,19.7,69.5,1012.52,0,0,0,0,0.020905
2020/11/05 02:59:00.002,n,257,3.6,3.6,3.96,19.7,69.6,1012.52,0,0,0,0,0.023499
2020/11/05 03:00:00.015,n,244,3.24,2.88,4.68,19.7,70.9,1012.52,0,0,0,0,0.021744
2020/11/05 03:01:00.000,n,269,4.68,3.96,6.12,19.7,71.1,1012.62,0,0,0,0,0.024376
2020/11/05 03:02:00.000,n,262,3.6,2.88,3.96,19.7,71.2,1012.62,0,0,0,0,0.025253
2020/11/05 03:03:00.000,n,246,2.88,2.16,3.6,19.7,71.1,1012.62,0,0,0,0,0.023499
2020/11/05 03:04:00.004,n,318,2.88,2.52,3.96,19.7,71.8,1012.52,0,0,0,0,0.023499
2020/11/05 03:05:00.001,n,258,2.52,1.8,2.88,19.7,71.2,1012.52,0,0,0,0,0.021744
2020/11/05 03:06:00.000,n,31,0.72,0,1.44,19.7,70.5,1012.52,0,0,0,0,0.02697
2020/11/05 03:07:00.011,n,252,0.72,0.36,0.72,19.6,70.3,1012.52,0,0,0,0,0.022621
2020/11/05 03:08:00.009,n,287,0.72,0.36,1.8,19.6,70.3,1012.52,0,0,0,0,0.022621
2020/11/05 03:09:00.005,n,200,1.08,0,2.16,19.6,70.4,1012.52,0,0,0,0,0.021744
2020/11/05 03:10:00.000,n,244,1.44,0.72,2.52,19.5,70.3,1012.52,0,0,0,0,0.024376
2020/11/05 03:11:00.000,n,139,0.36,0,0.36,19.5,70.2,1012.52,0,0,0,0,0.029602
2020/11/05 03:12:00.000,n,258,0.72,0.36,1.44,19.5,70.4,1012.52,0,0,0,0,0.034828
2020/11/05 03:13:00.000,n,254,1.8,1.44,2.16,19.5,70.4,1012.52,0,0,0,0,0.035706
2020/11/05 03:14:00.005,n,212,1.44,1.08,1.8,19.5,70.6,1012.52,0,0,0,0,0.033112
2020/11/05 03:15:00.003,n,326,1.08,0.36,1.8,19.5,70.5,1012.52,0,0,0,0,0.033951
2020/11/05 03:16:00.000,n,75,1.8,1.44,2.16,19.5,70.4,1012.52,0,0,0,0,0.033112
2020/11/05 03:17:00.013,n,269,1.08,0.72,1.44,19.5,70.3,1012.52,0,0,0,0,0.030479
2020/11/05 03:18:00.011,n,125,0.36,0.36,0.72,19.5,70.4,1012.52,0,0,0,0,0.033112
2020/11/05 03:19:00.000,n,319,1.8,1.44,2.52,19.5,70.5,1012.42,0,0,0,0,0.033112
2020/11/05 03:20:00.000,n,295,1.08,0.72,1.8,19.5,70.7,1012.52,0,0,0,0,0.033951
2020/11/05 03:21:00.001,n,211,0.72,0.72,1.08,19.5,70.7,1012.52,0,0,0,0,0.033112
2020/11/05 03:22:00.000,n,134,1.08,0.72,1.44,19.4,70.7,1012.52,0,0,0,0,0.035706
2020/11/05 03:23:00.000,n,258,1.44,1.08,2.16,19.4,70.8,1012.52,0,0,0,0,0.033112
2020/11/05 03:24:00.010,n,247,3.96,3.6,3.96,19.4,70.7,1012.52,0,0,0,0,0.033951
2020/11/05 03:25:00.008,n,253,4.32,3.96,4.32,19.4,70.8,1012.52,0,0,0,0,0.039177
2020/11/05 03:26:00.004,n,259,5.76,5.4,6.12,19.4,70.9,1012.62,0,0,0,0,0.028725
2020/11/05 03:27:00.002,n,263,5.04,5.04,5.4,19.3,71.1,1012.62,0,0,0,0,0.036583
2020/11/05 03:28:00.000,n,258,4.32,3.96,4.68,19.3,71.2,1012.62,0,0,0,0,0.033112
2020/11/05 03:29:00.000,n,269,3.96,3.96,4.32,19.3,71.3,1012.62,0,0,0,0,0.033951
2020/11/05 03:30:00.000,n,269,3.96,3.96,4.32,19.3,71.4,1012.62,0,0,0,0,0.029602
2020/11/05 03:31:00.006,n,270,3.6,3.24,3.96,19.3,71.7,1012.62,0,0,0,0,0.033951
2020/11/05 03:32:00.004,n,260,2.88,2.88,3.24,19.3,71.6,1012.62,0,0,0,0,0.033951
2020/11/05 03:33:00.000,n,255,3.96,3.96,3.96,19.3,71.7,1012.62,0,0,0,0,0.029602
2020/11/05 03:34:00.000,n,260,2.88,2.52,2.88,19.2,71.8,1012.52,0,0,0,0,0.032234
2020/11/05 03:35:00.010,n,261,2.52,2.16,2.88,19.2,71.8,1012.52,0,0,0,0,0.030479
2020/11/05 03:36:00.008,n,278,1.8,1.08,2.88,19.2,72.2,1012.52,0,0,0,0,0.031319
2020/11/05 03:37:00.000,n,250,1.44,0.72,2.88,19.2,72.4,1012.52,0,0,0,0,0.032234
2020/11/05 03:38:00.001,n,243,1.08,0.72,1.8,19.2,72.3,1012.42,0,0,0,0,0.031319
2020/11/05 03:39:00.000,n,199,0.72,0.36,1.08,19.2,72.5,1012.42,0,0,0,0,0.029602
2020/11/05 03:40:00.000,n,166,1.8,1.44,1.8,19.2,72.1,1012.42,0,0,0,0,0.034828
2020/11/05 03:41:00.000,n,186,3.24,2.88,3.6,19.2,72.1,1012.42,0,0,0,0,0.036583
2020/11/05 03:42:00.006,n,215,1.8,1.44,2.16,19.2,72.1,1012.52,0,0,0,0,0.031319
2020/11/05 03:43:00.004,n,239,1.08,0.72,1.44,19.1,72.1,1012.52,0,0,0,0,0.033951
2020/11/05 03:44:00.000,n,198,2.16,1.8,2.52,19.1,72.1,1012.52,0,0,0,0,0.032234
2020/11/05 03:45:00.014,n,213,2.52,1.8,2.52,19.1,72.3,1012.52,0,0,0,0,0.027885
2020/11/05 03:46:00.000,n,197,2.52,1.44,3.6,19.1,72.4,1012.52,0,0,0,0,0.033112
2020/11/05 03:47:00.000,n,196,2.52,2.16,3.24,19.1,72.5,1012.52,0,0,0,0,0.030479
2020/11/05 03:48:00.005,n,220,2.88,2.52,3.6,19.1,72.6,1012.52,0,0,0,0,0.033951
2020/11/05 03:49:00.002,n,113,0.36,0.36,1.8,19.1,72.7,1012.52,0,0,0,0,0.028725
2020/11/05 03:50:00.000,n,237,2.52,2.16,2.88,19.1,72.7,1012.52,0,0,0,0,0.026131
2020/11/05 03:51:00.000,n,150,2.52,2.16,2.88,19.1,73,1012.52,0,0,0,0,0.031319
2020/11/05 03:52:00.009,n,186,1.8,0.72,2.88,19.1,73.2,1012.52,0,0,0,0,0.028725
2020/11/05 03:53:00.007,n,181,1.08,0.36,2.16,19,73.3,1012.52,0,0,0,0,0.029602
2020/11/05 03:54:00.004,n,277,3.6,3.24,3.96,19,73.3,1012.52,0,0,0,0,0.028725
2020/11/05 03:55:00.001,n,278,1.8,1.08,2.52,19,73.7,1012.52,0,0,0,0,0.027008
2020/11/05 03:56:00.000,n,265,1.44,1.08,1.8,19,73.5,1012.52,0,0,0,0,0.027008
2020/11/05 03:57:00.000,n,268,4.68,4.32,4.68,19,74.2,1012.52,0,0,0,0,0.028725
2020/11/05 03:58:00.000,n,231,1.44,1.08,1.8,19,73.8,1012.52,0,0,0,0,0.022659
2020/11/05 03:59:00.005,n,261,1.44,1.08,1.8,18.9,73.8,1012.52,0,0,0,0,0.026131
2020/11/05 04:00:00.002,n,280,1.44,1.08,1.8,18.9,73.8,1012.52,0,0,0,0,0.020905
2020/11/05 04:01:00.000,n,258,3.24,2.52,3.24,18.8,74,1012.52,0,0,0,0,0.029602
2020/11/05 04:02:00.012,n,285,1.8,1.44,2.52,18.8,73.9,1012.52,0,0,0,0,0.026131
2020/11/05 04:03:00.010,n,90,0.36,0,0.72,18.8,74,1012.42,0,0,0,0,0.022659
2020/11/05 04:04:00.000,n,123,2.16,1.44,2.52,18.8,74.1,1012.42,0,0,0,0,0.024376
2020/11/05 04:05:00.003,n,209,2.16,1.44,2.52,18.8,74.2,1012.42,0,0,0,0,0.027008
2020/11/05 04:06:00.000,n,204,0.72,0.36,1.08,18.7,74.4,1012.42,0,0,0,0,0.029602
2020/11/05 04:07:00.000,n,208,1.44,0.72,2.16,18.7,74.5,1012.42,0,0,0,0,0.022659
2020/11/05 04:08:00.000,n,287,2.52,2.16,2.88,18.7,74.7,1012.42,0,0,0,0,0.033951
2020/11/05 04:09:00.007,n,117,0.36,0.36,0.72,18.7,74.7,1012.42,0,0,0,0,0.0383
2020/11/05 04:10:00.004,n,61,2.16,1.8,3.24,18.7,74.7,1012.42,0,0,0,0,0.041809
2020/11/05 04:11:00.001,n,345,0.72,0.72,0.72,18.7,74.5,1012.42,0,0,0,0,0.039177
2020/11/05 04:12:00.015,n,244,0.36,0.36,1.08,18.8,74.4,1012.42,0,0,0,0,0.0383
2020/11/05 04:13:00.000,n,137,0.72,0,1.8,18.8,74.3,1012.52,0,0,0,0,0.039177
2020/11/05 04:14:00.000,n,122,1.08,1.08,1.44,18.7,74.4,1012.52,0,0,0,0,0.040932
2020/11/05 04:15:00.000,n,212,0.36,0.36,0.36,18.7,74.5,1012.52,0,0,0,0,0.039177
2020/11/05 04:16:00.005,n,154,1.8,1.08,2.52,18.7,74.7,1012.52,0,0,0,0,0.040054
2020/11/05 04:17:00.002,n,152,1.8,1.44,2.16,18.7,75,1012.42,0,0,0,0,0.039177
2020/11/05 04:18:00.000,n,139,1.08,0.72,1.08,18.7,75.2,1012.42,0,0,0,0,0.0383
2020/11/05 04:19:00.000,n,152,2.88,2.52,2.88,18.6,75.3,1012.52,0,0,0,0,0.039177
2020/11/05 04:20:00.009,n,143,3.96,3.6,4.32,18.6,75.3,1012.52,0,0,0,0,0.035706
2020/11/05 04:21:00.007,n,147,3.24,2.88,3.96,18.6,75.4,1012.52,0,0,0,0,0.040932
2020/11/05 04:22:00.000,n,178,1.08,0.36,1.8,18.5,75.6,1012.52,0,0,0,0,0.046158
2020/11/05 04:23:00.001,n,138,0.72,0.36,1.08,18.5,75.7,1012.52,0,0,0,0,0.041809
2020/11/05 04:24:00.000,n,136,3.24,2.16,3.6,18.4,75.7,1012.52,0,0,0,0,0.039177
2020/11/05 04:25:00.000,n,150,1.44,1.08,1.44,18.4,75.7,1012.62,0,0,0,0,0.046158
2020/11/05 04:26:00.000,n,168,1.44,1.08,1.44,18.4,75.8,1012.62,0,0,0,0,0.049629
2020/11/05 04:27:00.007,n,158,1.44,1.08,1.8,18.4,75.9,1012.62,0,0,0,0,0.054855
2020/11/05 04:28:00.005,n,156,1.44,1.08,1.8,18.4,75.8,1012.62,0,0,0,0,0.062675
2020/11/05 04:29:00.001,n,177,3.96,3.6,3.96,18.3,75.8,1012.62,0,0,0,0,0.068779
2020/11/05 04:30:00.015,n,215,3.24,2.88,3.6,18.3,75.9,1012.62,0,0,0,0,0.080109
2020/11/05 04:31:00.000,n,200,1.8,1.44,2.52,18.3,75.9,1012.62,0,0,0,0,0.094872
2020/11/05 04:32:00.000,n,166,1.8,1.08,2.16,18.3,75.9,1012.72,0,0,0,0,0.117493
2020/11/05 04:33:00.000,n,131,1.44,1.44,1.8,18.3,76.1,1012.72,0,0,0,0,0.14534
2020/11/05 04:34:00.005,n,169,1.08,1.08,1.08,18.3,76.1,1012.72,0,0,0,0,0.186234
2020/11/05 04:35:00.002,n,131,2.16,1.8,2.52,18.3,76.1,1012.72,0,0,0,0,0.221863
2020/11/05 04:36:00.000,n,155,1.44,0.72,2.88,18.3,76.2,1012.72,0,0,0,0,0.287094
2020/11/05 04:37:00.000,n,153,2.52,1.44,4.32,18.3,76.4,1012.72,0,0,0,0,0.357475
2020/11/05 04:38:00.009,n,150,2.52,1.8,2.88,18.3,76.5,1012.72,0,0,0,0,0.438271
2020/11/05 04:39:00.007,n,171,3.6,3.24,3.96,18.3,76.6,1012.72,0,0,0,0,0.533791
2020/11/05 04:40:00.000,n,190,2.88,2.88,2.88,18.2,76.6,1012.72,0,0,0,0,0.64743
2020/11/05 04:41:00.000,n,178,3.96,3.6,4.32,18.2,76.7,1012.72,0,0,0,0,0.77137
2020/11/05 04:42:00.000,n,170,5.4,4.68,5.76,18.2,76.9,1012.72,0,0,0,0,0.912323
2020/11/05 04:43:00.000,n,162,4.68,4.32,5.04,18.2,77,1012.82,0,0,0,0,1.071396
2020/11/05 04:44:00.000,n,159,3.24,2.52,3.96,18.2,77.1,1012.82,0,0,0,0,1.252861
2020/11/05 04:45:00.005,n,155,2.52,2.16,3.24,18.2,77.2,1012.82,0,0,0,0,1.455879
2020/11/05 04:46:00.001,n,193,2.16,2.16,2.52,18.2,77.3,1012.82,0,0,0,0,1.679382
2020/11/05 04:47:00.000,n,188,2.52,2.52,2.88,18.2,77.2,1012.92,0,0,0,0,1.930313
2020/11/05 04:48:00.012,n,160,2.16,1.8,2.52,18.2,77.4,1012.92,0,0,0,0,2.196121
2020/11/05 04:49:00.000,n,182,1.08,0.72,1.44,18.2,77.4,1012.92,0,0,0,0,2.486229
2020/11/05 04:50:00.000,n,175,2.52,2.16,2.88,18.2,77.5,1012.92,0,0,0,0,2.79747
2020/11/05 04:51:00.004,n,196,2.52,2.16,2.52,18.2,77.5,1012.92,0,0,0,0,3.133202
2020/11/05 04:52:00.002,n,255,1.8,0.72,2.52,18.2,77.4,1012.92,0,0,0,0,3.507805
2020/11/05 04:53:00.000,n,244,0.72,0.36,1.8,18.1,77.3,1012.92,0,0,0,0,3.934822
2020/11/05 04:54:00.000,n,262,3.6,3.6,3.96,18.1,77.2,1012.92,0,0,0,0,4.414978
2020/11/05 04:55:00.008,n,265,3.24,2.88,3.6,18.1,77.3,1012.92,0,0,0,0,4.953804
2020/11/05 04:56:00.006,n,282,3.24,2.88,3.6,18.1,78.5,1013.02,0,0,0,0,5.565872